GW3991 Weather Reports


time (UTC)temp
C
wind
direction
speed
KPH
gust
KPH
rain 1hr
cm
rain 24hr
cm
rain mn
cm
humidity
%
barometer
mb
20260906190838 29 269 0.0 8.0 0.00 0.05 0.05 77 1015.3
20260906190338 30 283 4.8 9.7 0.00 0.05 0.05 78 1015.2
20260906185833 31 150 0.0 3.2 0.00 0.05 0.05 73 1015.1
20260906185332 30 132 0.0 3.2 0.00 0.05 0.05 75 1015.1
20260906184826 30 179 3.2 6.4 0.00 0.05 0.05 74 1015.2
20260906184321 30 198 3.2 9.7 0.00 0.05 0.05 75 1015.3
20260906183817 30 209 4.8 12.9 0.00 0.05 0.05 76 1015.3
20260906183313 30 152 3.2 9.7 0.00 0.05 0.05 74 1015.5
20260906182813 30 203 4.8 11.3 0.00 0.05 0.05 76 1015.4
20260906182306 30 199 3.2 6.4 0.00 0.05 0.05 74 1015.2
20260906181758 30 212 8.0 9.7 0.00 0.05 0.05 74 1015.6
20260906181255 30 197 8.0 9.7 0.00 0.05 0.05 71 1015.5
20260906180754 30 154 3.2 8.0 0.00 0.05 0.05 72 1015.4
20260906180249 30 148 8.0 14.5 0.00 0.05 0.05 72 1015.5
20260906175746 30 194 3.2 8.0 0.00 0.05 0.05 74 1015.4
20260906175243 30 210 6.4 11.3 0.00 0.05 0.05 72 1015.5
20260906174741 29 217 8.0 11.3 0.00 0.05 0.05 74 1015.6
20260906174240 28 201 6.4 11.3 0.00 0.05 0.05 78 1015.9
20260906173736 29 151 11.3 14.5 0.00 0.05 0.05 75 1015.7
20260906173232 30 189 8.0 14.5 0.00 0.05 0.05 74 1015.7
20260906172730 29 174 6.4 12.9 0.00 0.05 0.05 76 1015.7
20260906172226 29 175 4.8 9.7 0.00 0.05 0.05 76 1015.6
20260906171726 29 150 9.7 20.9 0.00 0.05 0.05 77 1015.8
20260906171222 29 169 6.4 17.7 0.00 0.05 0.05 79 1016.1
20260906170718 29 150 12.9 16.1 0.00 0.05 0.05 77 1016.1
20260906170213 30 139 4.8 8.0 0.00 0.05 0.05 76 1016.3
20260906165709 29 172 4.8 9.7 0.00 0.05 0.05 78 1016.3
20260906165204 29 166 6.4 9.7 0.00 0.05 0.05 78 1016.4
20260906164703 29 202 6.4 8.0 0.00 0.05 0.05 79 1016.4
20260906164158 28 18 0.0 4.8 0.00 0.05 0.05 81 1016.4
20260906163654 28 102 1.6 4.8 0.00 0.05 0.05 82 1016.4
20260906163150 28 89 1.6 4.8 0.00 0.05 0.05 81 1016.5
20260906162647 27 142 1.6 4.8 0.00 0.05 0.05 84 1016.5
20260906162146 27 145 0.0 3.2 0.00 0.05 0.05 87 1016.4
20260906161641 26 137 3.2 3.2 0.00 0.05 0.05 87 1016.4
20260906161140 26 129 0.0 3.2 0.00 0.05 0.05 87 1016.4
20260906160639 26 103 3.2 4.8 0.00 0.05 0.05 88 1016.4
20260906160133 26 44 0.0 4.8 0.00 0.05 0.05 86 1016.6
20260906155630 26 146 4.8 4.8 0.00 0.05 0.05 85 1016.7
20260906155127 26 139 4.8 4.8 0.00 0.05 0.05 88 1016.7
20260906154621 26 202 1.6 3.2 0.00 0.05 0.05 90 1016.6
20260906154121 26 152 3.2 4.8 0.00 0.05 0.05 91 1016.7
20260906153620 26 92 3.2 3.2 0.00 0.05 0.05 91 1016.6
20260906153114 25 330 1.6 3.2 0.05 0.05 0.05 92 1016.7
20260906152610 25 106 3.2 8.0 0.13 0.05 0.05 90 1016.8
20260906152103 26 277 1.6 4.8 0.05 0.00 0.00 88 1016.8
20260906151558 26 226 1.6 3.2 0.00 0.00 0.00 87 1016.8
20260906151054 26 243 0.0 4.8 0.00 0.00 0.00 88 1016.8
20260906150549 26 313 3.2 3.2 0.00 0.00 0.00 87 1016.8
20260906150044 26 142 0.0 0.0 0.00 0.00 0.00 87 1017.0
20260906145543 26 53 3.2 4.8 0.00 0.00 0.00 87 1016.8
20260906145038 26 331 3.2 4.8 0.00 0.00 0.00 87 1017.0
20260906144532 26 234 6.4 9.7 0.00 0.00 0.00 87 1016.8
20260906144027 26 229 6.4 11.3 0.00 0.00 0.00 86 1016.9
20260906143523 26 206 11.3 17.7 0.00 0.00 0.00 87 1016.8
20260906143019 26 150 8.0 14.5 0.00 0.00 0.00 86 1016.3
20260906142513 26 155 4.8 11.3 0.00 0.00 0.00 86 1015.9
20260906142009 26 158 12.9 16.1 0.00 0.00 0.00 86 1016.1
20260906141508 26 142 8.0 11.3 0.00 0.00 0.00 86 1016.0
20260906141003 26 143 6.4 9.7 0.00 0.00 0.00 86 1016.2
20260906140457 26 122 3.2 6.4 0.00 0.00 0.00 87 1016.3
20260906135955 26 126 4.8 14.5 0.00 0.00 0.00 87 1016.1
20260906135454 26 145 4.8 8.0 0.00 0.00 0.00 87 1016.1
20260906134949 25 151 1.6 11.3 0.00 0.00 0.00 88 1016.0
20260906134444 25 135 4.8 6.4 0.00 0.00 0.00 89 1016.1
20260906133939 25 140 3.2 6.4 0.00 0.00 0.00 88 1016.0
20260906133435 25 119 0.0 6.4 0.00 0.00 0.00 89 1016.0
20260906132930 25 121 0.0 6.4 0.00 0.00 0.00 89 1016.1
20260906132425 25 133 4.8 6.4 0.00 0.00 0.00 89 1016.1
20260906131920 25 158 1.6 6.4 0.00 0.00 0.00 89 1015.9
20260906131416 25 136 0.0 6.4 0.00 0.00 0.00 89 1016.1
20260906130911 25 154 4.8 4.8 0.00 0.00 0.00 89 1016.1
20260906130410 25 139 4.8 9.7 0.00 0.00 0.00 90 1016.0
20260906125905 25 127 1.6 4.8 0.00 0.00 0.00 90 1015.8
20260906125402 25 129 1.6 6.4 0.00 0.00 0.00 90 1015.8
20260906124857 24 98 0.0 6.4 0.00 0.00 0.00 90 1015.8
20260906124353 24 124 1.6 6.4 0.00 0.00 0.00 90 1015.7
20260906123852 24 124 4.8 8.0 0.00 0.00 0.00 90 1015.8
20260906123347 24 115 1.6 3.2 0.00 0.00 0.00 91 1015.5
20260906122846 24 135 1.6 6.4 0.00 0.00 0.00 91 1015.5
20260906122341 24 152 4.8 6.4 0.00 0.00 0.00 91 1015.5
20260906121838 24 134 6.4 8.0 0.00 0.00 0.00 91 1015.5
20260906121334 24 137 4.8 4.8 0.00 0.00 0.00 91 1015.4
20260906120830 24 168 0.0 4.8 0.00 0.00 0.00 91 1015.3
20260906120326 24 156 6.4 8.0 0.00 0.00 0.00 91 1015.2
20260906115822 24 81 0.0 6.4 0.00 0.00 0.00 91 1015.4
20260906115317 24 93 0.0 4.8 0.00 0.00 0.00 91 1015.1
20260906114816 24 124 0.0 4.8 0.00 0.00 0.00 90 1015.4
20260906114311 24 111 3.2 4.8 0.00 0.00 0.00 90 1015.1
20260906113806 24 123 0.0 4.8 0.00 0.00 0.00 90 1015.0
20260906113305 24 121 3.2 4.8 0.00 0.00 0.00 91 1015.1
20260906112800 24 151 4.8 8.0 0.00 0.00 0.00 91 1015.1
20260906112251 24 132 1.6 6.4 0.00 0.00 0.00 91 1015.2
20260906111751 24 139 1.6 4.8 0.00 0.00 0.00 91 1015.0
20260906111250 24 126 0.0 3.2 0.00 0.00 0.00 91 1015.1
20260906110745 24 87 1.6 3.2 0.00 0.00 0.00 91 1015.1
20260906110241 24 92 0.0 3.2 0.00 0.00 0.00 91 1014.9
20260906105740 24 130 0.0 1.6 0.00 0.00 0.00 91 1015.0
20260906105236 24 50 0.0 0.0 0.00 0.00 0.00 91 1015.0
20260906104731 25 86 1.6 3.2 0.00 0.00 0.00 90 1015.2
20260906104230 25 88 3.2 3.2 0.00 0.00 0.00 90 1015.0
20260906103728 25 129 0.0 1.6 0.00 0.00 0.00 90 1015.0
20260906103222 25 89 0.0 1.6 0.00 0.00 0.00 90 1014.9
20260906102718 25 127 1.6 3.2 0.00 0.00 0.00 89 1015.2
20260906102217 25 115 0.0 3.2 0.00 0.00 0.00 89 1015.2
20260906101712 25 149 1.6 3.2 0.00 0.00 0.00 89 1015.0
20260906101207 25 137 0.0 3.2 0.00 0.00 0.00 89 1014.9
20260906100702 25 130 0.0 1.6 0.00 0.00 0.00 89 1015.0
20260906100157 25 357 3.2 3.2 0.00 0.00 0.00 89 1014.9
20260906095652 25 98 1.6 1.6 0.00 0.00 0.00 89 1014.9
20260906095147 25 123 1.6 3.2 0.00 0.00 0.00 89 1014.7
20260906094646 25 125 0.0 3.2 0.00 0.00 0.00 89 1014.6
20260906094141 25 135 4.8 4.8 0.00 0.00 0.00 89 1014.9
20260906093637 25 118 1.6 1.6 0.00 0.00 0.00 89 1014.8
20260906093132 25 121 4.8 4.8 0.00 0.00 0.00 88 1015.0
20260906092627 25 120 3.2 3.2 0.00 0.00 0.00 88 1014.9
20260906092122 25 134 4.8 8.0 0.00 0.00 0.00 88 1014.8
20260906091618 25 136 3.2 3.2 0.00 0.00 0.00 88 1014.8
20260906091114 25 133 4.8 6.4 0.00 0.00 0.00 88 1014.9
20260906090614 25 129 3.2 4.8 0.00 0.00 0.00 88 1014.7
20260906090109 25 141 4.8 4.8 0.00 0.00 0.00 88 1014.7
20260906085608 25 155 0.0 4.8 0.00 0.00 0.00 88 1014.8
20260906085103 25 115 3.2 6.4 0.00 0.00 0.00 87 1014.8
20260906084557 25 126 1.6 3.2 0.00 0.00 0.00 88 1014.8
20260906084056 25 159 1.6 6.4 0.00 0.00 0.00 87 1015.1
20260906083552 25 133 3.2 4.8 0.00 0.00 0.00 87 1014.9
20260906083051 26 126 3.2 4.8 0.00 0.00 0.00 87 1014.8
20260906082547 26 132 3.2 6.4 0.00 0.00 0.00 87 1014.6
20260906082042 25 129 3.2 6.4 0.00 0.00 0.00 88 1015.0
20260906081537 25 125 0.0 3.2 0.00 0.00 0.00 88 1014.9
20260906081028 25 117 0.0 1.6 0.00 0.00 0.00 88 1014.7
20260906080524 26 136 3.2 3.2 0.00 0.00 0.00 87 1014.7
20260906080020 26 130 3.2 6.4 0.00 0.00 0.00 87 1014.6
20260906075520 26 142 3.2 3.2 0.00 0.00 0.00 87 1014.6
20260906075014 26 113 3.2 4.8 0.00 0.00 0.00 86 1014.6
20260906074509 26 130 1.6 6.4 0.00 0.00 0.00 86 1014.5
20260906074008 26 121 3.2 8.0 0.00 0.00 0.00 86 1014.5
20260906073503 26 145 1.6 3.2 0.00 0.00 0.00 87 1014.5
20260906072958 26 146 3.2 4.8 0.00 0.00 0.00 87 1014.5
20260906072454 26 122 4.8 8.0 0.00 0.00 0.00 86 1014.7
20260906071949 26 131 6.4 6.4 0.00 0.00 0.00 87 1014.6
20260906071446 26 127 3.2 9.7 0.00 0.00 0.00 87 1014.8
20260906070941 26 139 3.2 6.4 0.00 0.00 0.00 87 1014.8
20260906070437 26 138 3.2 6.4 0.00 0.00 0.00 87 1014.8
20260906065932 26 159 6.4 8.0 0.00 0.00 0.00 87 1014.8
20260906065427 26 138 6.4 6.4 0.00 0.00 0.00 87 1015.0
20260906064922 26 136 3.2 3.2 0.00 0.00 0.00 87 1014.9
20260906064418 26 131 3.2 6.4 0.00 0.00 0.00 87 1014.7
20260906063918 26 105 3.2 6.4 0.00 0.00 0.00 87 1014.8
20260906063414 26 93 1.6 6.4 0.00 0.00 0.00 87 1015.1
20260906062909 26 147 4.8 6.4 0.00 0.00 0.00 87 1014.9
20260906062409 26 35 3.2 4.8 0.00 0.00 0.00 87 1014.9
20260906061903 26 130 3.2 3.2 0.00 0.00 0.00 87 1015.0
20260906061359 26 110 1.6 6.4 0.00 0.00 0.00 87 1015.1
20260906060853 26 150 0.0 4.8 0.00 0.00 0.00 87 1015.0
20260906060351 26 62 3.2 6.4 0.00 0.00 0.00 87 1015.0
20260906055847 26 139 6.4 8.0 0.00 0.00 0.00 86 1015.0
20260906055343 26 134 6.4 6.4 0.00 0.00 0.00 86 1015.4
20260906054838 26 129 3.2 6.4 0.00 0.00 0.00 86 1015.0
20260906054332 26 145 4.8 6.4 0.00 0.00 0.00 86 1015.2
20260906053829 27 108 3.2 6.4 0.00 0.00 0.00 86 1015.0
20260906053324 27 154 3.2 6.4 0.00 0.00 0.00 86 1015.0
20260906052820 27 117 0.0 3.2 0.00 0.00 0.00 86 1015.1
20260906052316 27 112 1.6 4.8 0.00 0.00 0.00 87 1015.0
20260906051813 27 185 3.2 6.4 0.00 0.00 0.00 86 1014.8
20260906051312 27 103 1.6 4.8 0.00 0.00 0.00 87 1014.8
20260906050808 27 156 6.4 6.4 0.00 0.00 0.00 87 1014.9
20260906050303 27 120 3.2 8.0 0.00 0.00 0.00 86 1014.9
20260906045801 27 139 3.2 11.3 0.00 0.00 0.00 86 1014.9
20260906045256 27 128 3.2 3.2 0.00 0.00 0.00 87 1015.0
20260906044753 27 134 3.2 3.2 0.00 0.00 0.00 88 1015.0
20260906044247 27 25 0.0 1.6 0.00 0.00 0.00 88 1015.1
20260906043743 27 133 3.2 6.4 0.00 0.00 0.00 87 1014.8
20260906043239 27 141 0.0 4.8 0.00 0.00 0.00 87 1014.7
20260906042738 27 89 0.0 1.6 0.00 0.00 0.00 88 1015.0
20260906042237 27 142 3.2 3.2 0.00 0.00 0.00 87 1014.9
20260906041733 27 135 0.0 3.2 0.00 0.00 0.00 87 1014.9
20260906041228 27 132 1.6 4.8 0.00 0.00 0.00 87 1014.8
20260906040724 27 133 1.6 1.6 0.00 0.00 0.00 87 1014.9
20260906040219 27 130 0.0 1.6 0.00 0.00 0.00 88 1014.9
20260906035715 27 89 0.0 0.0 0.00 0.00 0.00 87 1015.1
20260906035210 27 220 1.6 3.2 0.00 0.00 0.00 87 1015.2
20260906034705 27 135 0.0 1.6 0.00 0.00 0.00 87 1014.9
20260906034200 27 89 0.0 1.6 0.00 0.00 0.00 86 1014.9
20260906033655 27 131 0.0 3.2 0.00 0.00 0.00 86 1014.8
20260906033156 27 134 3.2 3.2 0.00 0.00 0.00 86 1014.9
20260906032651 27 89 0.0 3.2 0.00 0.00 0.00 86 1015.0
20260906032146 27 142 0.0 3.2 0.00 0.00 0.00 86 1014.8
20260906031642 27 128 3.2 3.2 0.00 0.00 0.00 86 1015.0
20260906031137 27 212 0.0 1.6 0.00 0.00 0.00 86 1014.8
20260906030636 28 347 0.0 3.2 0.00 0.00 0.00 85 1014.8
20260906030132 28 49 3.2 3.2 0.00 0.00 0.00 85 1014.9
20260906025631 28 211 0.0 3.2 0.00 0.00 0.00 85 1014.5
20260906025130 28 143 1.6 3.2 0.00 0.00 0.00 84 1014.4
20260906024625 28 134 3.2 4.8 0.00 0.00 0.00 84 1014.4
20260906024119 28 15 0.0 4.8 0.00 0.00 0.00 84 1014.1
20260906023615 28 157 1.6 3.2 0.00 0.00 0.00 83 1014.2
20260906023109 28 75 0.0 3.2 0.00 0.00 0.00 83 1014.0
20260906022605 28 141 0.0 4.8 0.00 0.00 0.00 83 1013.7
20260906022100 28 66 0.0 4.8 0.00 0.00 0.00 83 1013.8
20260906021556 28 78 1.6 3.2 0.00 0.00 0.00 83 1013.6
20260906021054 28 127 0.0 3.2 0.00 0.00 0.00 83 1013.7
20260906020554 28 118 0.0 3.2 0.00 0.00 0.00 83 1013.5
20260906020054 28 176 0.0 1.6 0.00 0.00 0.00 83 1013.6
20260906015553 29 126 0.0 3.2 0.00 0.00 0.00 82 1013.4
20260906015053 28 122 0.0 1.6 0.00 0.00 0.00 82 1013.2
20260906014548 29 276 0.0 3.2 0.00 0.00 0.00 82 1013.0
20260906014044 29 76 0.0 3.2 0.00 0.00 0.00 81 1013.2
20260906013538 29 141 1.6 4.8 0.00 0.00 0.00 80 1013.2
20260906013034 29 175 1.6 4.8 0.00 0.00 0.00 80 1012.9
20260906012529 30 129 1.6 3.2 0.00 0.00 0.00 80 1012.9
20260906012028 29 35 1.6 1.6 0.00 0.00 0.00 80 1012.9
20260906011525 30 62 0.0 1.6 0.00 0.00 0.00 79 1013.0
20260906011025 30 75 0.0 1.6 0.00 0.00 0.00 79 1013.0
20260906010520 30 275 1.6 1.6 0.00 0.00 0.00 78 1012.9
20260906010017 30 66 0.0 3.2 0.00 0.00 0.00 77 1013.0
20260906005515 30 138 1.6 1.6 0.00 0.00 0.00 77 1012.9
20260906005015 31 242 0.0 1.6 0.00 0.00 0.00 75 1012.7
20260906004509 31 80 0.0 3.2 0.00 0.00 0.00 74 1012.8
20260906004004 31 89 0.0 1.6 0.00 0.00 0.00 73 1012.8
20260906003459 31 154 0.0 3.2 0.00 0.00 0.00 73 1012.7
20260906002955 32 156 3.2 4.8 0.00 0.00 0.00 71 1012.7
20260906002454 32 124 3.2 6.4 0.00 0.00 0.00 71 1012.6
20260906001949 32 142 1.6 6.4 0.00 0.00 0.00 70 1012.5
20260906001445 32 149 3.2 6.4 0.00 0.00 0.00 69 1012.4
20260906000934 32 182 3.2 9.7 0.00 0.00 0.00 70 1012.5
20260906000433 32 142 3.2 8.0 0.00 0.00 0.00 69 1012.5
20260905235924 33 135 6.4 8.0 0.00 0.00 0.00 67 1012.7
20260905235424 33 140 6.4 6.4 0.00 0.00 0.00 66 1012.9
20260905234920 33 130 4.8 4.8 0.00 0.00 0.00 65 1012.7
20260905234414 33 140 3.2 4.8 0.00 0.00 0.00 65 1012.9
20260905233909 33 102 0.0 1.6 0.00 0.00 0.00 67 1012.7
20260905233404 33 120 0.0 3.2 0.00 0.00 0.00 66 1012.8
20260905232903 33 120 3.2 3.2 0.00 0.00 0.00 66 1012.6
20260905232400 33 157 6.4 8.0 0.00 0.00 0.00 65 1012.4
20260905231855 33 163 6.4 14.5 0.00 0.00 0.00 64 1012.4
20260905231350 33 183 6.4 14.5 0.00 0.00 0.00 64 1012.3
20260905230847 34 146 9.7 20.9 0.00 0.00 0.00 62 1012.5
20260905230344 34 147 11.3 12.9 0.00 0.00 0.00 63 1012.2
20260905225843 34 177 4.8 17.7 0.00 0.00 0.00 62 1012.5
20260905225339 34 154 6.4 17.7 0.00 0.00 0.00 62 1012.5
20260905224834 35 157 4.8 9.7 0.00 0.00 0.00 61 1012.5
20260905224329 34 150 8.0 16.1 0.00 0.00 0.00 62 1012.5
20260905223824 34 153 3.2 6.4 0.00 0.00 0.00 63 1012.4
20260905223322 34 127 4.8 8.0 0.00 0.00 0.00 63 1012.5
20260905222816 34 178 4.8 8.0 0.00 0.00 0.00 63 1012.4
20260905222315 34 188 4.8 12.9 0.00 0.00 0.00 62 1012.4
20260905221811 34 142 3.2 12.9 0.00 0.00 0.00 62 1012.3
20260905221308 34 163 6.4 8.0 0.00 0.00 0.00 61 1012.5
20260905220803 34 119 6.4 9.7 0.00 0.00 0.00 62 1012.2
20260905220259 33 164 3.2 8.0 0.00 0.00 0.00 62 1012.5
20260905215758 34 135 4.8 6.4 0.00 0.00 0.00 61 1012.3
20260905215254 34 143 0.0 8.0 0.00 0.00 0.00 61 1012.5
20260905214750 34 147 3.2 6.4 0.00 0.00 0.00 60 1012.5
20260905214245 33 239 1.6 11.3 0.00 0.00 0.00 61 1012.4
20260905213741 33 324 3.2 6.4 0.00 0.00 0.00 62 1012.6
20260905213237 34 154 12.9 17.7 0.00 0.00 0.00 59 1012.5
20260905212732 33 31 3.2 9.7 0.00 0.00 0.00 61 1012.7
20260905212231 33 140 9.7 16.1 0.00 0.00 0.00 62 1012.9
20260905211730 33 283 3.2 8.0 0.00 0.00 0.00 62 1012.9
20260905211226 33 137 6.4 14.5 0.00 0.00 0.00 62 1012.8
20260905210723 33 130 0.0 17.7 0.00 0.00 0.00 62 1013.1
20260905210222 33 327 3.2 6.4 0.00 0.00 0.00 62 1013.2
20260905205721 33 168 4.8 9.7 0.00 0.00 0.00 62 1013.3
20260905205216 33 286 3.2 8.0 0.00 0.00 0.00 62 1013.5
20260905204710 33 19 9.7 9.7 0.00 0.00 0.00 61 1013.4
20260905204200 33 168 6.4 9.7 0.00 0.00 0.00 62 1013.5
20260905203700 33 146 3.2 8.0 0.00 0.00 0.00 62 1013.7
20260905203155 33 145 3.2 9.7 0.00 0.00 0.00 64 1013.6
20260905202651 33 63 0.0 14.5 0.00 0.00 0.00 63 1013.8
20260905202146 33 51 1.6 8.0 0.00 0.00 0.00 64 1014.0
20260905201642 33 104 3.2 8.0 0.00 0.00 0.00 63 1014.2
20260905201141 33 98 4.8 6.4 0.00 0.00 0.00 65 1014.2
20260905200632 33 183 9.7 9.7 0.00 0.00 0.00 64 1014.6
20260905200126 33 156 9.7 12.9 0.00 0.00 0.00 63 1014.4
20260905195620 33 357 3.2 6.4 0.00 0.00 0.00 64 1014.6
20260905195115 33 34 3.2 9.7 0.00 0.00 0.00 63 1014.6
20260905194614 32 148 3.2 11.3 0.00 0.00 0.00 65 1014.6
20260905194114 32 106 3.2 9.7 0.00 0.00 0.00 65 1014.8
20260905193608 33 109 4.8 11.3 0.00 0.00 0.00 64 1014.7
20260905193103 33 61 3.2 6.4 0.00 0.00 0.00 64 1014.8
20260905192559 32 142 0.0 12.9 0.00 0.00 0.00 65 1014.9
20260905192056 32 154 0.0 16.1 0.00 0.00 0.00 67 1015.1
20260905191554 32 83 4.8 9.7 0.00 0.00 0.00 66 1015.1
20260905191053 32 82 1.6 9.7 0.00 0.00 0.00 65 1015.2